TimePST,TemperatureF,Dew PointF,Humidity,Sea Level PressureIn,VisibilityMPH,Wind Direction,Wind SpeedMPH,Gust SpeedMPH,PrecipitationIn,Events,Conditions,WindDirDegrees,DateUTC
12:17 AM,21.2,19.4,93,30.18,4.0,NNE,5.8,-,N/A,,Overcast,30,2014-02-25 08:17:00
12:58 AM,21.6,19.4,91,30.31,4.0,NNE,5.8,-,0.00,,Overcast,20,2014-02-25 08:58:00
1:58 AM,21.7,18.3,87,30.32,4.0,NNE,8.1,-,N/A,,Overcast,20,2014-02-25 09:58:00
2:58 AM,20.3,15.8,83,30.32,4.0,NNE,8.1,-,N/A,,Haze,20,2014-02-25 10:58:00
3:58 AM,18.0,13.3,82,30.35,4.0,North,6.9,-,N/A,,Haze,10,2014-02-25 11:58:00
4:58 AM,16.5,11.1,79,30.36,4.0,NNE,8.1,-,N/A,,Haze,30,2014-02-25 12:58:00
5:10 AM,17.6,12.2,79,30.25,2.5,NNE,6.9,-,N/A,,Haze,30,2014-02-25 13:10:00
5:18 AM,17.6,12.2,79,30.25,3.0,NE,5.8,-,N/A,,Haze,40,2014-02-25 13:18:00
5:58 AM,14.4,9.1,80,30.38,4.0,NNE,9.2,-,N/A,,Haze,20,2014-02-25 13:58:00
6:58 AM,14.4,8.4,77,30.39,10.0,NE,6.9,-,0.00,Snow,Light Snow,50,2014-02-25 14:58:00
7:02 AM,14.0,8.6,79,30.27,10.0,NE,8.1,-,N/A,,Clear,50,2014-02-25 15:02:00
7:58 AM,16.7,8.4,70,30.40,10.0,NE,4.6,-,0.00,,Clear,50,2014-02-25 15:58:00
8:58 AM,18.9,9.7,67,30.42,10.0,NE,6.9,-,N/A,,Clear,40,2014-02-25 16:58:00
9:58 AM,22.1,11.5,64,30.41,10.0,NNE,9.2,-,N/A,,Clear,30,2014-02-25 17:58:00
10:58 AM,24.8,12.6,60,30.40,10.0,NNE,8.1,-,N/A,,Clear,30,2014-02-25 18:58:00
11:58 AM,27.9,13.3,54,30.39,10.0,NE,12.7,-,N/A,,Clear,40,2014-02-25 19:58:00
12:39 PM,28.4,14.0,55,30.27,10.0,NE,15.0,-,N/A,,Clear,50,2014-02-25 20:39:00
12:48 PM,30.2,14.0,51,30.27,10.0,NE,13.8,-,N/A,,Clear,50,2014-02-25 20:48:00
12:58 PM,29.7,14.2,53,30.37,10.0,NE,16.1,-,0.00,,Clear,50,2014-02-25 20:58:00
1:58 PM,31.1,14.4,50,30.35,10.0,NE,12.7,-,N/A,,Clear,40,2014-02-25 21:58:00
2:58 PM,32.0,14.9,49,30.34,10.0,NE,11.5,-,N/A,,Clear,40,2014-02-25 22:58:00
3:58 PM,32.2,16.3,52,30.32,10.0,NE,9.2,-,N/A,,Clear,40,2014-02-25 23:58:00
4:58 PM,30.0,14.4,52,30.32,10.0,NNE,6.9,-,N/A,,Clear,30,2014-02-26 00:58:00
5:58 PM,25.7,9.7,51,30.32,10.0,North,8.1,-,N/A,,Clear,10,2014-02-26 01:58:00
6:58 PM,24.8,8.8,51,30.32,10.0,NNE,9.2,-,N/A,,Clear,20,2014-02-26 02:58:00
7:58 PM,23.9,8.6,52,30.31,10.0,NNE,6.9,-,N/A,,Clear,30,2014-02-26 03:58:00
8:58 PM,22.8,8.8,55,30.32,10.0,NE,6.9,-,N/A,,Clear,40,2014-02-26 04:58:00
9:58 PM,21.7,9.1,58,30.30,10.0,NE,9.2,-,N/A,,Clear,40,2014-02-26 05:58:00
10:58 PM,20.8,10.6,65,30.29,10.0,NNE,5.8,-,N/A,,Clear,20,2014-02-26 06:58:00
11:58 PM,21.2,8.4,58,30.28,10.0,NE,6.9,-,N/A,,Clear,40,2014-02-26 07:58:00